OPS 4682 DEB, 18534

Orbit data source: Space-Track

OPS 4682 DEB, 18534 is space debris in LEO originally from a launch on Sat, 03 Apr 1965 UTC launched from the Air Force Western Test Range (AFWTR). Debris objects in space refer to the collection of defunct objects orbiting the Earth. Examples of debris include non-operational satellites, rocket bodies, and fragments generated from explosions, collisions, or faulty payload assembly.

Loading next visibility...
Identifier
18534, 1965-027AE
Orbit
LEO
Country
Flag of USUS
Related business
Manufacturer
Unknown
Mission
Spacecraft
Bus & Motor
Unknown
Mass
Unknown
Launch date (UTC)
1965-04-03 (61 years ago)
Launch vehicle
Unknown
Launch site
Air Force Western Test Range (AFWTR)
Object type
Payload
Rocket body
Debris
Shape & HBR
Unknown shape, 0.1 m
Radar Cross Section
Small (<0.1 m²)

Expand to show TLE details & history
Last TLE update: 18 hours ago

TLE from 18 hours ago
0 OPS 4682 DEB
1 18534U 65027AE  26035.73397591  .00000336  00000-0  11503-2 0  9995
2 18534  90.2690  20.6536 0030492  97.3031  80.1213 12.96127853823835
Epoch: 2026-02-04T17:36Z
TLE epoch observation values (Epoch: 2026-02-04T17:36:55.518Z)
Latitude
2.1315°
Longitude
161.53593°
Altitude
1,275.986 km
Speed
7.22 km/s
True Right ascension
13h 22m 39s
True Declination
2° 07' 11"
Sunlit
Object was in daylight at epoch
Visualization orbit readout
Latitude
Unknown
Longitude
Unknown
Altitude
Unknown
Speed
Unknown
Apparent Right ascension
Unknown
Apparent Declination
Unknown
Sunlit
N/A
Visualization observer readout
Local Sidereal Time
13:52:21
Azimuth
Unknown
Elevation
Unknown
Doppler factor
Unknown
Orbital elements
Apogee altitude
1,297.763 km
Perigee altitude
1,251.094 km
Semi-major axis
7,652.565 km
Eccentricity
0.00305
Inclination
90.269°
RAAN
20.6536°
Arg. of periapsis
97.3031°
True anomaly
80.46576°
Mean anomaly
80.1213°
Eccentric anomaly
80.29351°
Mean motion
3.24215 °/min
Orbital period
111.04 mins
BSTAR
0.0011503
Loading maneuver chart data...
Computing Atmospheric mass density...
Loading historical data...
Loading historical data...
Loading historical data...
Loading historical data...
Loading historical data...
Loading historical data...
Loading historical data...

Documentation

Showing up to 5 results
|